TimeCDT,TemperatureF,Dew PointF,Humidity,Sea Level PressureIn,VisibilityMPH,Wind Direction,Wind SpeedMPH,Gust SpeedMPH,PrecipitationIn,Events,Conditions,WindDirDegrees,DateUTC
12:53 AM,57.9,52.0,81,29.91,10.0,East,3.5,-,N/A,,Clear,80,2013-09-22 05:53:00
1:53 AM,57.9,51.1,78,29.92,10.0,NE,3.5,-,N/A,,Clear,40,2013-09-22 06:53:00
2:53 AM,57.0,51.1,81,29.93,10.0,Calm,Calm,-,N/A,,Clear,0,2013-09-22 07:53:00
3:53 AM,55.0,51.1,86,29.93,10.0,Calm,Calm,-,N/A,,Clear,0,2013-09-22 08:53:00
4:53 AM,55.0,51.1,86,29.93,10.0,Calm,Calm,-,N/A,,Clear,0,2013-09-22 09:53:00
5:53 AM,53.1,50.0,89,29.94,10.0,ENE,5.8,-,N/A,,Clear,60,2013-09-22 10:53:00
6:53 AM,53.1,50.0,89,29.95,10.0,ENE,4.6,-,N/A,,Clear,70,2013-09-22 11:53:00
7:53 AM,54.0,51.1,90,29.97,10.0,ENE,3.5,-,N/A,,Clear,70,2013-09-22 12:53:00
8:53 AM,59.0,53.1,81,29.98,10.0,ENE,5.8,-,N/A,,Clear,60,2013-09-22 13:53:00
9:53 AM,64.9,52.0,63,29.99,10.0,East,5.8,-,N/A,,Clear,80,2013-09-22 14:53:00
10:53 AM,69.1,53.1,57,29.99,10.0,Variable,5.8,-,N/A,,Clear,0,2013-09-22 15:53:00
11:53 AM,73.9,52.0,46,29.97,10.0,SE,8.1,-,N/A,,Clear,140,2013-09-22 16:53:00
12:53 PM,75.9,50.0,40,29.95,10.0,East,4.6,-,N/A,,Clear,100,2013-09-22 17:53:00
1:53 PM,78.1,50.0,37,29.92,10.0,NE,8.1,-,N/A,,Clear,50,2013-09-22 18:53:00
2:53 PM,79.0,50.0,36,29.89,10.0,NE,8.1,-,N/A,,Clear,40,2013-09-22 19:53:00
3:53 PM,79.0,51.1,38,29.87,10.0,ENE,8.1,17.3,N/A,,Clear,70,2013-09-22 20:53:00
4:53 PM,80.1,51.1,36,29.85,10.0,ENE,10.4,-,N/A,,Clear,60,2013-09-22 21:53:00
5:53 PM,79.0,50.0,36,29.85,10.0,ENE,10.4,-,N/A,,Clear,70,2013-09-22 22:53:00
6:53 PM,75.0,52.0,44,29.85,10.0,ENE,8.1,-,N/A,,Clear,70,2013-09-22 23:53:00
7:53 PM,71.1,54.0,55,29.85,10.0,East,3.5,-,N/A,,Clear,80,2013-09-23 00:53:00
8:53 PM,68.0,54.0,61,29.86,10.0,Calm,Calm,-,N/A,,Clear,0,2013-09-23 01:53:00
9:53 PM,66.0,53.1,63,29.86,10.0,Calm,Calm,-,N/A,,Clear,0,2013-09-23 02:53:00
10:53 PM,64.0,55.0,73,29.88,10.0,ENE,3.5,-,N/A,,Clear,60,2013-09-23 03:53:00
11:53 PM,61.0,55.9,83,29.88,10.0,Calm,Calm,-,N/A,,Clear,0,2013-09-23 04:53:00